Temp
7 7 8 7 6 6 6 6 6 6 5 4 4 4 4 5 5 5 5 5 5 5 5 5 5 5 5 5 5 4 4 4 4 4 3 4 4 4 4 4 4 4 4
7 7 7 6 6 6 6 6 5 5 4 3 3 4 4 4 4 4 5 5 5 5 5 5 5 4 4 4 4 4 3 3 3 3 3 3 3 3 3 3 3 3 3
7 7 7 6 6 6 5 5 4 3 4 3 3 3 3 3 4 4 4 4 4 4 4 4 3 3 3 3 3 3 3 3 3 3 3 3 4 3 3 3 2 2 2
6 6 6 6 5 5 5 4 4 3 3 3 3 3 3 3 3 3 3 3 3 3 3 3 3 3 3 3 3 3 3 2 2 2 2 2 2 3 4 3 2 2 2
6 6 6 5 5 4 4 4 4 3 3 3 3 2 2 2 2 2 2 3 3 3 2 2 2 2 2 2 1 1 1 1 1 2 2 2 2 1 1 2 2 1 0
5 5 5 4 4 3 3 3 3 3 3 3 2 2 2 1 1 1 1 1 2 1 1 1 2 2 1 1 1 1 1 1 1 1 1 1 1 0 0 0 0 0 -0
5 5 4 3 3 3 3 3 3 3 3 3 2 2 2 1 1 0 0 1 1 1 2 1 1 1 1 1 0 0 -0 -0 -0 -0 -0 -0 -0 -0 -1 -1 -1 -1 -1
4 4 3 3 3 3 3 4 3 3 3 3 3 2 2 1 1 0 0 0 1 1 1 1 0 0 0 0 0 0 -0 -0 -1 -1 -1 -2 -2 -2 -2 -2 -2 -2 -3
3 2 3 3 3 3 3 4 3 3 3 3 3 2 2 2 1 1 1 0 0 0 0 0 0 0 0 -0 -0 -1 -1 -2 -2 -2 -2 -2 -2 -2 -2 -3 -3 -3 -3
2 3 3 2 2 3 3 3 3 3 3 3 3 2 2 2 1 1 0 0 0 0 0 0 0 0 -0 -0 -1 -1 -2 -2 -2 -3 -3 -3 -3 -3 -3 -4 -4 -4 -4
3 3 2 2 2 3 3 2 2 3 3 2 3 2 2 2 1 1 1 0 1 0 1 0 0 -0 -0 -1 -1 -1 -2 -2 -3 -3 -4 -4 -4 -4 -5 -5 -5 -5 -5
2 2 2 2 2 2 2 2 2 2 3 3 2 2 2 2 1 1 1 0 0 0 0 0 -0 -1 -1 -1 -1 -2 -3 -4 -4 -5 -5 -5 -5 -5 -5 -5 -5 -6 -5
1 1 1 1 2 2 2 2 2 2 2 2 1 1 1 1 1 1 1 0 0 -0 -1 -1 -1 -1 -2 -2 -2 -3 -4 -4 -5 -5 -5 -6 -6 -6 -6 -6 -6 -6 -6
1 1 1 1 2 2 2 1 1 1 1 1 1 0 0 0 -0 -0 -0 -0 -1 -1 -1 -1 -1 -2 -2 -3 -3 -3 -4 -5 -6 -6 -6 -6 -6 -6 -6 -6 -6 -6 -6
0 0 1 1 1 1 0 0 0 1 0 0 -0 -0 -1 -1 -1 -1 -1 -1 -1 -1 -2 -2 -2 -2 -3 -3 -3 -4 -4 -5 -6 -7 -7 -7 -6 -6 -7 -7 -7 -7 -7
0 1 1 0 -0 -0 -0 -0 -1 -1 -1 -1 -1 -1 -2 -2 -2 -2 -2 -2 -2 -2 -2 -2 -2 -2 -3 -3 -4 -4 -5 -5 -5 -6 -7 -7 -7 -7 -7 -7 -7 -7 -7
0 0 -0 -0 -1 -1 -1 -1 -1 -1 -1 -2 -2 -2 -2 -2 -2 -2 -2 -3 -3 -3 -3 -3 -3 -3 -3 -4 -4 -4 -4 -5 -5 -6 -7 -7 -7 -7 -7 -8 -8 -8 -8
-0 -0 -1 -2 -2 -2 -2 -2 -2 -3 -3 -3 -3 -3 -3 -3 -2 -2 -2 -2 -3 -3 -3 -3 -3 -3 -3 -4 -4 -5 -4 -4 -5 -6 -7 -7 -7 -7 -7 -8 -8 -8 -8
-1 -2 -2 -2 -3 -3 -3 -4 -4 -4 -4 -4 -3 -3 -3 -2 -2 -2 -2 -2 -2 -2 -3 -3 -3 -3 -4 -4 -5 -5 -5 -5 -5 -6 -7 -8 -7 -8 -8 -8 -8 -8 -9
-2 -3 -3 -4 -4 -5 -5 -4 -4 -4 -4 -4 -3 -3 -3 -3 -3 -2 -2 -2 -3 -2 -3 -3 -4 -4 -4 -5 -5 -6 -6 -6 -6 -6 -8 -8 -8 -8 -8 -8 -9 -9 -10
-4 -4 -5 -5 -5 -5 -5 -5 -5 -5 -5 -4 -4 -3 -3 -3 -3 -3 -3 -4 -4 -4 -4 -4 -5 -5 -6 -6 -6 -6 -6 -6 -7 -7 -8 -8 -8 -8 -8 -8 -9 -10 -11
-5 -5 -5 -6 -6 -6 -6 -6 -5 -5 -4 -4 -4 -4 -4 -3 -3 -4 -4 -5 -5 -5 -6 -6 -6 -7 -7 -7 -7 -7 -6 -7 -7 -9 -9 -8 -8 -8 -8 -8 -10 -11 -11
-6 -6 -6 -6 -6 -6 -6 -5 -5 -5 -5 -4 -4 -4 -4 -4 -5 -5 -6 -6 -7 -8 -7 -8 -8 -8 -8 -8 -8 -8 -7 -7 -7 -9 -9 -8 -8 -8 -8 -9 -10 -11 -11
-7 -7 -7 -6 -6 -6 -6 -6 -6 -5 -5 -5 -4 -5 -5 -6 -7 -8 -8 -9 -9 -10 -10 -10 -10 -10 -9 -10 -9 -9 -8 -8 -9 -8 -8 -9 -9 -9 -9 -9 -11 -11 -11
-7 -7 -7 -6 -6 -6 -6 -7 -6 -6 -6 -6 -6 -7 -8 -8 -9 -9 -10 -10 -11 -11 -11 -11 -11 -11 -11 -11 -10 -9 -9 -9 -9 -9 -9 -9 -9 -9 -9 -10 -11 -11 -11
-7 -7 -7 -7 -7 -7 -7 -8 -8 -8 -8 -8 -9 -10 -10 -10 -10 -11 -10 -11 -11 -11 -12 -12 -12 -12 -12 -11 -9 -9 -9 -9 -9 -9 -9 -9 -9 -9 -10 -11 -11 -11 -11
Height
3154 3154 3154 3153 3151 3149 3147 3144 3142 3140 3139 3137 3135 3133 3130 3128 3125 3121 3119 3117 3115 3113 3111 3109 3107 3105 3103 3101 3099 3097 3095 3093 3092 3091 3087 3085 3082 3079 3077 3075 3072 3071 3069
3150 3150 3149 3148 3146 3144 3142 3141 3138 3136 3134 3133 3131 3129 3126 3123 3120 3117 3115 3113 3110 3108 3106 3104 3102 3100 3098 3095 3093 3092 3090 3088 3087 3086 3084 3081 3079 3073 3072 3070 3067 3064 3062
3146 3145 3144 3143 3141 3140 3139 3136 3134 3132 3131 3130 3128 3125 3122 3119 3116 3113 3110 3108 3105 3103 3101 3100 3097 3095 3093 3091 3088 3086 3084 3082 3079 3078 3077 3075 3074 3071 3066 3063 3060 3058 3055
3142 3141 3140 3139 3138 3137 3134 3132 3131 3129 3128 3126 3124 3121 3117 3114 3111 3108 3106 3104 3101 3099 3097 3094 3092 3090 3088 3085 3083 3080 3078 3075 3073 3070 3068 3066 3066 3064 3063 3059 3054 3049 3048
3139 3138 3137 3136 3135 3133 3131 3129 3127 3125 3124 3121 3118 3115 3112 3109 3107 3105 3102 3100 3097 3094 3091 3089 3086 3083 3081 3079 3077 3075 3072 3070 3067 3064 3060 3057 3053 3052 3052 3053 3050 3044 3039
3136 3135 3134 3132 3131 3129 3127 3125 3123 3121 3118 3115 3112 3110 3108 3105 3103 3100 3098 3095 3093 3090 3088 3085 3082 3080 3077 3074 3072 3069 3066 3063 3060 3057 3054 3051 3047 3043 3041 3039 3040 3038 3034
3133 3131 3129 3127 3126 3124 3122 3120 3118 3116 3112 3109 3107 3104 3102 3099 3097 3095 3093 3091 3088 3085 3083 3081 3078 3075 3072 3069 3066 3063 3060 3057 3055 3052 3049 3045 3042 3039 3036 3033 3031 3030 3029
3130 3128 3126 3124 3123 3122 3119 3117 3114 3111 3106 3103 3101 3098 3096 3093 3092 3089 3087 3086 3084 3081 3078 3075 3072 3068 3065 3061 3059 3056 3053 3050 3047 3044 3042 3039 3035 3032 3029 3027 3024 3022 3020
3126 3124 3123 3122 3120 3117 3116 3113 3109 3105 3101 3099 3096 3094 3091 3089 3086 3084 3082 3080 3078 3075 3072 3069 3065 3061 3058 3055 3052 3049 3046 3043 3040 3038 3035 3033 3030 3028 3024 3021 3018 3015 3012
3123 3121 3120 3117 3115 3113 3111 3107 3103 3100 3098 3095 3092 3089 3086 3084 3082 3080 3078 3075 3073 3069 3065 3061 3058 3054 3051 3048 3046 3043 3040 3038 3034 3032 3029 3025 3022 3018 3015 3012 3010 3008 3005
3119 3118 3116 3113 3111 3109 3106 3102 3098 3096 3093 3090 3087 3084 3081 3079 3077 3075 3072 3069 3066 3062 3058 3054 3052 3048 3045 3041 3039 3036 3033 3030 3027 3023 3021 3017 3014 3011 3008 3005 3002 3000 2998
3114 3113 3110 3108 3107 3103 3099 3096 3094 3091 3089 3086 3084 3081 3078 3075 3072 3070 3067 3063 3060 3056 3052 3048 3044 3041 3037 3033 3030 3027 3023 3021 3018 3015 3012 3010 3006 3003 3000 2998 2995 2993 2990
3109 3107 3105 3104 3101 3097 3094 3091 3088 3086 3084 3081 3078 3075 3071 3069 3066 3063 3059 3055 3051 3048 3044 3040 3036 3032 3027 3023 3020 3017 3014 3011 3009 3007 3005 3003 2999 2996 2992 2990 2988 2985 2983
3105 3103 3101 3099 3095 3091 3088 3086 3083 3080 3077 3074 3071 3067 3064 3061 3058 3054 3051 3047 3042 3039 3035 3031 3027 3023 3019 3015 3011 3007 3005 3002 3000 2998 2997 2995 2991 2989 2985 2982 2980 2978 2975
3099 3098 3096 3094 3090 3087 3083 3080 3077 3074 3071 3067 3064 3061 3058 3054 3050 3046 3042 3038 3034 3030 3026 3022 3018 3014 3009 3006 3002 2998 2995 2992 2990 2988 2986 2985 2983 2981 2978 2975 2973 2970 2968
3095 3093 3091 3088 3085 3082 3079 3076 3073 3070 3067 3063 3060 3056 3052 3049 3045 3041 3036 3032 3027 3023 3018 3014 3010 3006 3001 2997 2993 2988 2984 2981 2979 2978 2976 2974 2973 2971 2969 2966 2964 2962 2960
3090 3087 3085 3082 3080 3076 3073 3070 3067 3064 3060 3056 3053 3049 3045 3041 3037 3032 3027 3023 3017 3013 3009 3004 2999 2994 2991 2987 2982 2977 2972 2970 2968 2966 2966 2965 2964 2961 2960 2958 2955 2955 2952
3084 3082 3079 3076 3073 3070 3068 3065 3061 3057 3053 3049 3046 3042 3037 3032 3028 3023 3018 3013 3007 3003 2998 2993 2989 2983 2980 2975 2970 2965 2959 2957 2957 2955 2954 2955 2954 2953 2950 2948 2947 2946 2944
3078 3076 3073 3070 3068 3065 3062 3059 3056 3051 3046 3041 3038 3034 3028 3022 3017 3011 3006 3002 2995 2990 2985 2980 2975 2969 2965 2961 2957 2952 2947 2944 2944 2943 2943 2942 2943 2943 2940 2939 2938 2937 2936
3071 3069 3067 3064 3062 3058 3054 3051 3047 3042 3036 3031 3027 3023 3017 3011 3004 2998 2991 2986 2980 2973 2967 2963 2960 2955 2950 2947 2943 2938 2935 2934 2932 2931 2931 2931 2932 2932 2931 2929 2928 2928 2928
3064 3062 3060 3057 3055 3051 3046 3043 3038 3032 3026 3020 3016 3010 3005 2997 2991 2984 2977 2970 2962 2956 2950 2946 2943 2938 2936 2933 2929 2926 2922 2921 2919 2919 2920 2921 2921 2921 2921 2919 2919 2919 2917
3058 3056 3054 3051 3049 3044 3037 3032 3028 3021 3014 3008 3002 2996 2990 2983 2975 2967 2960 2953 2945 2937 2931 2927 2924 2922 2921 2918 2917 2913 2910 2909 2906 2908 2910 2910 2909 2911 2911 2910 2909 2909 2908
3051 3048 3046 3043 3041 3036 3030 3023 3017 3008 3002 2996 2990 2983 2975 2967 2959 2950 2943 2935 2928 2921 2915 2909 2906 2905 2905 2904 2902 2901 2899 2896 2896 2897 2900 2900 2900 2901 2901 2900 2900 2899 2898
3046 3042 3038 3034 3031 3026 3020 3014 3005 2998 2991 2983 2976 2968 2960 2952 2944 2936 2928 2921 2914 2906 2900 2894 2891 2889 2889 2890 2889 2886 2886 2886 2886 2888 2889 2890 2891 2891 2891 2891 2890 2889 2888
3038 3034 3029 3024 3021 3014 3009 3003 2994 2986 2979 2971 2963 2955 2946 2939 2931 2925 2916 2908 2904 2895 2886 2882 2878 2876 2876 2878 2876 2876 2876 2877 2878 2877 2879 2880 2881 2882 2882 2882 2881 2881 2881
3029 3025 3020 3015 3010 3004 2997 2991 2982 2975 2966 2957 2950 2942 2934 2926 2919 2911 2904 2903 2894 2887 2880 2874 2867 2865 2865 2867 2867 2867 2866 2867 2868 2867 2869 2871 2872 2873 2873 2873 2873 2873 2873
Wind_Speed
17 17 17 17 16 18 19 20 19 19 18 18 20 21 22 22 23 23 23 24 24 23 23 23 22 21 21 22 22 22 22 21 20 19 21 21 24 24 25 25 26 27 28
18 18 16 16 16 17 18 18 15 13 14 17 19 22 24 24 24 24 24 23 23 23 23 23 22 22 22 23 23 23 23 24 23 22 21 21 23 25 25 26 27 28 28
14 13 11 12 14 16 17 15 14 13 17 20 21 23 24 25 25 23 23 22 22 22 22 23 22 22 23 23 24 24 24 25 26 24 25 23 22 23 26 27 29 28 28
8 9 11 13 14 16 16 16 16 17 19 21 24 27 28 28 27 24 22 21 21 21 22 22 22 23 23 23 24 24 24 25 25 26 26 26 25 24 24 26 27 31 28
10 9 10 11 13 16 17 17 18 19 24 28 29 29 28 28 26 23 22 21 20 20 21 21 21 22 22 22 22 23 25 25 26 26 27 28 29 28 27 23 25 28 29
7 9 11 12 13 15 17 20 23 25 27 28 28 28 28 28 26 24 21 20 19 20 21 22 24 24 24 24 24 24 24 25 26 27 28 28 30 32 32 31 27 26 28
9 12 12 12 14 16 18 21 23 23 26 26 26 27 26 26 25 24 22 20 20 19 20 22 24 25 26 27 27 26 26 26 26 27 28 29 30 30 32 32 30 28 26
9 12 12 10 10 13 17 19 21 20 23 24 24 24 23 24 24 23 22 21 22 23 24 26 27 27 26 26 27 28 28 28 27 27 27 28 29 30 30 31 31 30 28
10 15 17 17 18 19 22 21 20 19 21 22 23 23 22 23 22 23 23 23 24 26 28 28 28 29 28 29 30 29 29 28 29 29 29 30 31 31 31 31 31 32 32
16 19 22 20 22 25 24 22 21 20 21 21 22 22 22 22 21 22 22 24 26 29 30 30 30 30 31 32 32 32 32 31 31 30 29 29 29 30 30 30 31 31 32
17 21 24 21 22 22 21 21 22 22 21 21 21 20 20 20 21 22 24 27 28 30 31 32 32 32 33 34 34 34 34 33 32 31 29 29 29 29 30 31 32 32 32
23 24 21 17 20 23 24 23 22 23 24 23 22 23 23 24 24 25 27 29 30 31 32 32 33 33 33 34 35 35 34 34 32 31 30 29 29 28 29 30 31 31 32
26 22 16 19 24 24 23 23 23 22 23 23 23 24 25 26 28 29 30 31 32 32 33 34 35 35 34 35 36 36 35 35 34 32 31 29 29 28 29 29 29 29 30
24 19 20 25 25 23 22 21 21 21 21 22 24 25 26 28 29 31 32 34 34 35 35 36 37 37 37 37 37 37 37 37 36 34 32 30 30 29 30 30 29 29 29
21 20 24 23 21 21 20 20 20 21 22 22 24 26 27 28 30 31 32 33 34 34 34 35 34 35 36 36 37 38 38 38 38 35 35 33 32 30 30 30 29 29 29
20 23 22 20 19 19 19 19 20 21 22 24 26 28 29 29 31 32 33 34 36 36 37 37 36 35 35 35 37 38 39 39 38 38 36 32 36 31 32 30 29 28 28
20 20 20 20 21 21 22 22 23 25 26 28 30 33 35 36 37 38 39 39 40 40 39 39 39 39 37 36 38 39 41 41 41 41 39 35 33 35 32 30 30 29 26
19 21 21 22 23 24 24 24 25 28 32 35 36 37 39 41 42 42 43 43 45 45 46 46 45 45 42 39 39 41 44 43 40 41 34 38 34 36 33 31 29 29 27
22 22 23 24 25 25 25 26 28 33 38 41 42 42 42 44 46 48 49 49 51 52 51 49 48 46 45 41 39 41 44 42 39 37 35 36 36 36 33 33 29 29 27
24 24 24 25 25 27 31 34 37 41 45 46 45 45 48 51 52 53 54 55 55 55 56 55 53 51 48 42 39 38 40 39 38 35 31 33 36 35 34 34 30 29 28
23 23 25 26 27 32 37 40 43 47 49 49 51 54 54 55 55 55 55 55 56 57 56 57 55 53 48 44 40 38 38 36 37 33 32 33 33 33 34 34 30 29 32
23 25 26 28 31 36 42 46 48 51 52 55 58 58 58 59 59 60 59 58 57 58 58 57 54 51 46 43 39 39 38 35 33 30 30 33 33 32 34 32 30 30 30
22 26 30 33 35 40 45 49 50 54 56 57 58 60 61 61 61 60 59 57 54 53 54 53 51 47 39 39 38 38 37 34 31 29 28 28 27 31 31 29 28 29 29
23 28 32 36 39 43 46 48 51 54 56 58 59 59 59 59 57 55 52 51 49 47 47 48 46 42 37 34 33 35 33 30 24 24 25 24 28 29 28 26 26 27 27
26 30 35 38 41 45 48 50 53 55 56 57 57 56 55 53 52 50 49 48 45 44 46 46 45 40 34 31 31 29 31 27 25 27 26 26 27 25 24 23 24 24 25
28 32 36 40 45 50 52 51 52 53 53 54 52 51 51 49 47 45 40 35 39 39 38 38 40 38 33 29 29 28 28 29 29 29 26 25 24 23 22 21 20 23 23
Wind_Direction
269 278 281 288 293 297 300 305 309 307 304 305 306 308 310 311 312 316 316 314 311 309 308 307 306 305 304 305 306 305 304 301 300 299 301 301 299 297 296 296 295 294 292
276 280 286 293 295 302 303 304 307 309 312 305 307 308 310 315 319 320 320 314 310 308 307 303 302 305 304 301 299 299 301 304 304 302 299 296 296 297 297 300 298 297 295
279 285 288 288 293 296 299 306 308 313 306 305 306 308 310 312 314 317 316 312 306 303 302 303 304 303 301 303 304 304 304 304 304 301 298 294 289 290 295 297 297 295 294
293 294 293 290 287 287 293 299 302 302 301 301 304 306 308 308 309 312 312 307 304 304 304 305 305 306 304 303 302 300 300 299 299 299 298 298 297 292 287 291 293 295 293
288 286 285 286 288 292 296 299 299 297 298 299 301 303 304 305 305 306 311 309 306 304 302 301 300 298 296 296 298 301 303 302 302 302 301 300 300 298 295 288 285 292 294
297 301 299 294 294 296 296 296 296 297 297 297 299 301 302 305 306 305 305 303 301 303 306 306 303 302 303 303 303 302 301 300 300 300 300 300 302 304 304 302 298 292 289
307 322 312 301 301 304 305 303 300 297 294 296 297 295 295 297 297 297 299 300 297 298 303 308 309 307 305 304 303 303 303 303 303 303 302 302 301 300 300 300 299 295 290
323 339 324 304 307 318 321 313 302 299 293 296 294 296 295 295 291 290 292 296 293 295 301 305 305 302 301 300 300 301 301 301 301 300 300 299 298 298 297 296 296 294 294
319 335 324 304 299 312 314 319 316 310 304 301 301 300 300 299 294 290 292 292 291 293 299 301 300 299 298 297 296 296 296 298 299 300 303 305 305 304 301 297 295 295 296
297 310 322 307 297 296 304 316 322 322 313 305 303 303 299 297 295 292 291 293 297 301 301 300 298 296 295 294 294 294 295 298 301 303 302 301 300 299 297 294 292 293 296
292 307 318 307 306 304 307 313 318 319 315 312 306 302 300 299 297 295 294 294 296 296 299 300 301 299 297 294 294 294 294 295 295 296 297 297 297 298 297 294 293 294 297
309 316 312 310 309 307 309 309 308 311 311 308 306 304 301 299 298 297 297 299 300 299 299 299 298 297 295 294 293 290 288 287 290 292 294 295 295 298 297 294 292 293 297
315 313 302 308 309 309 308 306 304 302 300 300 301 300 298 298 299 300 300 298 297 297 298 297 297 295 292 288 287 287 285 284 285 288 291 292 294 296 294 292 290 290 293
308 298 299 307 310 314 314 312 311 311 309 304 302 300 300 299 298 298 299 299 299 299 298 295 294 294 292 290 289 287 285 282 281 284 287 289 290 291 290 288 286 287 289
295 294 301 304 308 312 313 311 309 308 308 307 306 306 306 307 307 306 306 306 304 303 301 300 298 295 293 292 290 287 283 281 280 281 283 282 283 287 288 288 284 285 288
287 293 298 306 309 307 307 309 312 312 310 310 310 310 310 310 309 308 307 306 305 304 304 303 302 299 296 294 290 287 284 282 279 277 278 280 280 280 283 283 281 281 284
292 299 303 301 301 303 305 305 306 308 310 311 311 311 310 307 304 303 302 301 300 300 301 303 302 300 297 296 292 288 285 282 282 279 275 275 278 276 279 282 282 281 280
300 299 297 298 299 297 296 299 306 311 312 312 312 310 309 308 306 304 303 301 300 299 299 297 295 295 296 293 290 287 284 284 281 280 279 271 275 274 276 278 279 278 277
296 292 288 285 287 290 295 301 304 306 306 307 309 310 309 309 309 308 306 302 299 298 297 296 295 292 290 288 285 283 282 283 282 278 270 264 268 273 273 276 276 275 276
295 289 283 285 289 294 298 301 303 305 306 309 309 310 311 310 309 308 305 302 298 295 293 291 289 287 287 286 283 282 282 284 282 277 264 260 264 268 272 272 273 272 275
286 283 282 285 290 295 298 301 304 306 306 306 308 310 311 310 308 306 303 299 296 292 289 287 284 283 283 282 280 281 282 280 278 269 263 257 267 261 271 273 272 270 273
283 280 281 286 293 299 302 305 308 306 306 309 312 313 312 311 308 306 304 301 298 295 292 289 286 284 282 280 277 276 276 277 273 264 263 264 260 262 272 273 272 273 273
283 287 292 296 300 303 305 307 310 310 311 312 313 312 311 309 307 306 305 304 302 299 295 292 290 287 280 275 275 275 275 274 267 266 259 258 260 270 272 273 273 278 280
288 293 298 302 307 309 311 314 313 313 315 315 314 311 310 309 309 308 308 306 305 303 298 294 292 288 277 269 269 272 269 268 255 257 252 258 263 267 272 277 280 279 277
299 303 306 312 317 318 319 320 319 318 317 314 312 312 311 310 309 308 309 310 310 308 303 300 295 289 275 266 264 267 269 264 252 251 250 257 264 268 271 277 275 275 273
306 308 312 318 324 325 324 323 319 318 315 313 314 314 314 314 314 314 315 316 314 311 307 299 293 289 275 266 266 264 264 257 252 252 255 260 264 262 266 269 273 273 273